Flag for Austria Weather past 2 weeks in Lustenau, Vorarlberg, Austria

Now
64 °F

Low clouds.


Feels Like: 64 °F
Forecast: 57 / 79 °F
Wind: 2 mph from North

Location: Saint Gallen-Altenrhein

Current Time: Jul 23, 2014 at 5:30:34 AM

Latest Report: Jul 23, 2014 at 4:50 AM


Visibility: 3 mi

Pressure: 30.01 "Hg

Humidity: 94%

Dew point: 63 °F

Location of LustenauLocation

Historic Weather in Lustenau — Graph

°F

Lustenau temperature yesterday

Maximum temperature yesterday: 66 °F (at 1:20 PM)
Minimum temperature yesterday: 59 °F (at 1:50 AM)
Average temperature yesterday: 64 °F

Past Weeks' High & Low Weather Summary

 TemperatureHumidityPressure
High86 °F (Jul 19, 4:50 PM)100% (Jul 10, 8:50 PM)30.21 "Hg (Jul 10, 8:50 PM)
Low50 °F (Jul 10, 4:50 AM)20% (Jul 18, 7:20 PM)29.80 "Hg (Jul 20, 2:20 AM)
Average65 °F77%29.99 "Hg
* Reported Jul 8 4:20 AM — Jul 23 4:20 AM, Lustenau, Weather by CustomWeather, © 2014

Note: Actual official high and low records may vary slightly from our data, if they occured in-between our weather recording intervals... More about our weather records

Advertising

Lustenau weather history for previous 24 hours

 ConditionsComfort  
Time TempWeatherWind HumidityBarometerVisibility
4:20 AM
Jul 23
64 °FLow clouds.2 mph94%30.01 "Hg4 mi
3:50 AM64 °FOvercast.2 mph100%29.98 "Hg5 mi
3:20 AM64 °FPartly cloudy.1 mph100%29.98 "Hg5 mi
2:50 AM63 °FPassing clouds.2 mph100%30.01 "Hg4 mi
2:20 AM63 °FFog.1 mph100%30.01 "Hg1 mi
1:50 AM64 °FPassing clouds.2 mph94%30.01 "Hg4 mi
6:50 PM
Jul 22
66 °FScattered showers. Mostly cloudy.2 mph94%29.98 "HgN/A
6:20 PM66 °FScattered showers. Partly sunny.2 mph88%29.98 "HgN/A
5:50 PM66 °FSprinkles. Partly sunny.3 mph88%29.95 "HgN/A
5:20 PM66 °FSprinkles. Partly sunny.5 mph88%29.95 "HgN/A
4:50 PM66 °FScattered showers. Broken clouds.3 mph88%29.95 "HgN/A
4:20 PM66 °FScattered showers. Broken clouds.3 mph94%29.95 "HgN/A
3:50 PM64 °FSprinkles. Broken clouds.3 mph100%29.95 "Hg5 mi
3:20 PM64 °FPartly sunny.5 mph94%29.95 "Hg6 mi
2:50 PM66 °FLight rain. Broken clouds.7 mph94%29.95 "Hg6 mi
2:20 PM64 °FLight rain. Broken clouds.5 mph94%29.95 "HgN/A
1:50 PM66 °FLight rain. Broken clouds.7 mph88%29.95 "HgN/A
1:20 PM66 °FLight rain. Broken clouds.7 mph88%29.92 "HgN/A
12:50 PM64 °FSprinkles. Overcast.6 mph94%29.92 "HgN/A
12:20 PM64 °FLight rain. Partly sunny.7 mph94%29.92 "HgN/A
11:50 AM64 °FRain. Broken clouds.7 mph94%29.92 "Hg4 mi
11:20 AM64 °FRain. Broken clouds.7 mph94%29.92 "Hg2 mi
10:50 AM64 °FLight rain. Broken clouds.7 mph94%29.92 "HgN/A
10:20 AM64 °FLight rain. Broken clouds.8 mph94%29.92 "Hg4 mi
9:50 AM64 °FRain. Broken clouds.8 mph88%29.89 "Hg5 mi
9:20 AM64 °FLight rain. Broken clouds.12 mph88%29.89 "HgN/A
8:50 AM64 °FRain. Partly sunny.10 mph88%29.89 "Hg3 mi
8:20 AM64 °FLight rain. Partly sunny.6 mph88%29.89 "HgN/A
7:50 AM61 °FHeavy rain. Partly sunny.5 mph94%29.89 "Hg2 mi
7:20 AM61 °FHeavy rain. Fog.5 mph94%29.89 "Hg2 mi
6:50 AM63 °FHeavy rain. Fog.2 mph88%29.89 "Hg2 mi
6:20 AM63 °FHeavy rain. Fog.5 mph88%29.89 "Hg2 mi
5:50 AM63 °FHeavy rain. Fog.2 mph88%29.89 "Hg2 mi
5:20 AM63 °FRain showers. Overcast.5 mph88%29.89 "Hg6 mi
Weather by CustomWeather, © 2014

See weather overviewHow to use our weather pages